Atlanta, GA

12:31 PM EST on December 12, 2019 (GMT -0500)
The Hartsfield Atlanta International

Weather History for KATL - October, 2019

Change the Weather History Date:

Sunday, October 6, 2019

  Actual Average Record
Temperature  
Mean Temperature 72 °F 66 °F  
Max Temperature 81 °F 76 °F 95 °F (1954)
Min Temperature 62 °F 57 °F 42 °F (1932)
Degree Days  
Heating Degree Days 0 2  
Month to date heating degree days 0 9  
Since 1 July heating degree days 0 20  
Cooling Degree Days 6 3  
Month to date cooling degree days 99 23  
Year to date cooling degree days 2576 1828  
Growing Degree Days 22 (Base 50)    
Moisture  
Dew Point 60 °F    
Average Humidity 73    
Maximum Humidity 86    
Minimum Humidity 54    
Precipitation  
Precipitation 0.00 in 0.12 in 2.13 in (2013)
Month to date precipitation 0.00 0.81  
Year to date precipitation 32.33 39.11  
Sea Level Pressure  
Sea Level Pressure 30.18 in    
Wind  
Wind Speed 11 mph ()    
Max Wind Speed 21 mph    
Max Gust Speed 23 mph    
Visibility 9.4 miles    
Events      
T = Trace of Precipitation, MM = Missing Value Source: Averaged Metar Reports

Daily Weather History Graph

Daily Weather History Graph

Search for Another Location

Airport or City:

Astronomy

Oct. 06, 2019 Rise Set
Actual Time 7:35 AM EDT 7:15 PM EDT
Civil Twilight 7:10 AM EDT 7:40 PM EDT
Nautical Twilight 6:41 AM EDT 8:09 PM EDT
Astronomical Twilight 6:12 AM EDT 8:38 PM EDT
Moon 3:32 PM EDT (10/6) 12:54 AM EDT (10/6)
Length of Visible Light 12h 29m
Length of Day
11h 40m
First Quarter, 59% of the Moon is Illuminated
Oct 6
First Quarter
Oct 13
Full
Oct 21
Last Quarter
Oct 27
New
Nov 4
First Quarter

Hourly Weather History & Observations

Time (EDT) Temp. Heat Index Dew Point Humidity Pressure Visibility Wind Dir Wind Speed Gust Speed Precip Events Conditions
12:52 AM 66.0 °F - 59.0 °F 78% 30.16 in 9.0 mi East 17.3 mph - N/A   Overcast
1:52 AM 64.9 °F - 57.9 °F 78% 30.17 in 9.0 mi East 10.4 mph - N/A   Mostly Cloudy
2:37 AM 64.0 °F - 57.9 °F 80% 30.20 in 9.0 mi ENE 15.0 mph - N/A   Mostly Cloudy
2:52 AM 64.0 °F - 57.9 °F 80% 30.18 in 9.0 mi East 12.7 mph - N/A   Mostly Cloudy
3:52 AM 63.0 °F - 57.9 °F 84% 30.18 in 8.0 mi East 13.8 mph - N/A   Overcast
4:52 AM 62.1 °F - 57.0 °F 84% 30.18 in 8.0 mi ENE 12.7 mph - N/A   Overcast
5:52 AM 63.0 °F - 57.0 °F 81% 30.19 in 8.0 mi East 12.7 mph - N/A   Overcast
6:52 AM 63.0 °F - 57.9 °F 84% 30.19 in 8.0 mi East 9.2 mph - N/A   Overcast
7:52 AM 62.1 °F - 57.9 °F 86% 30.20 in 8.0 mi East 15.0 mph - N/A   Overcast
8:52 AM 63.0 °F - 57.9 °F 84% 30.22 in 8.0 mi East 9.2 mph - N/A   Overcast
9:52 AM 64.0 °F - 57.9 °F 80% 30.23 in 10.0 mi East 12.7 mph - N/A   Overcast
10:52 AM 66.0 °F - 59.0 °F 78% 30.23 in 10.0 mi East 12.7 mph - N/A   Overcast
10:58 AM 66.9 °F - 59.0 °F 76% 30.25 in 10.0 mi East 11.5 mph - N/A   Overcast
11:52 AM 69.1 °F - 60.1 °F 73% 30.23 in 10.0 mi East 9.2 mph - N/A   Overcast
12:14 PM 70.0 °F - 60.1 °F 71% 30.24 in 10.0 mi East 10.4 mph - N/A   Mostly Cloudy
12:52 PM 71.1 °F - 61.0 °F 70% 30.22 in 10.0 mi ESE 8.1 mph - N/A   Mostly Cloudy
1:52 PM 75.0 °F - 62.1 °F 64% 30.19 in 10.0 mi ESE 9.2 mph - N/A   Mostly Cloudy
2:52 PM 75.9 °F - 63.0 °F 64% 30.16 in 10.0 mi ENE 9.2 mph - N/A   Mostly Cloudy
3:52 PM 78.1 °F - 64.0 °F 62% 30.15 in 10.0 mi ENE 9.2 mph - N/A   Mostly Cloudy
4:52 PM 81.0 °F 82.5 °F 64.0 °F 56% 30.13 in 10.0 mi ESE 9.2 mph - N/A   Mostly Cloudy
5:52 PM 80.1 °F 81.5 °F 63.0 °F 56% 30.12 in 10.0 mi ENE 10.4 mph - N/A   Mostly Cloudy
6:52 PM 77.0 °F - 63.0 °F 62% 30.12 in 10.0 mi East 10.4 mph - N/A   Mostly Cloudy
7:52 PM 75.9 °F - 62.1 °F 62% 30.13 in 10.0 mi East 10.4 mph - N/A   Mostly Cloudy
8:52 PM 75.0 °F - 63.0 °F 66% 30.14 in 10.0 mi ENE 11.5 mph - N/A   Mostly Cloudy
9:52 PM 73.0 °F - 62.1 °F 68% 30.15 in 10.0 mi ENE 11.5 mph - N/A   Mostly Cloudy
10:52 PM 72.0 °F - 62.1 °F 71% 30.14 in 10.0 mi East 12.7 mph - N/A   Mostly Cloudy
11:52 PM 71.1 °F - 62.1 °F 73% 30.13 in 10.0 mi East 10.4 mph - N/A   Mostly Cloudy